| time (UTC) | temp C | wind direction | speed KPH | gust KPH | rain 1hr cm | rain 24hr cm | rain mn cm | humidity % | barometer mb |
| 20260506134025 | 23 | 171 | 1.6 | 4.8 | 0.00 | 0.28 | 0.00 | 93 | 1009.7 |
| 20260506133022 | 23 | 166 | 6.4 | 11.3 | 0.00 | 0.28 | 0.00 | 94 | 1009.4 |
| 20260506132016 | 23 | 155 | 6.4 | 9.7 | 0.00 | 0.28 | 0.00 | 94 | 1009.3 |
| 20260506131025 | 22 | 170 | 4.8 | 8.0 | 0.00 | 0.28 | 0.00 | 94 | 1009.2 |
| 20260506130126 | 22 | 163 | 3.2 | 6.4 | 0.00 | 0.28 | 0.00 | 94 | 1009.2 |
| 20260506125017 | 22 | 155 | 3.2 | 8.0 | 0.00 | 0.28 | 0.00 | 94 | 1009.0 |
| 20260506124017 | 22 | 179 | 3.2 | 6.4 | 0.00 | 0.28 | 0.00 | 94 | 1008.9 |
| 20260506123017 | 22 | 156 | 4.8 | 11.3 | 0.00 | 0.28 | 0.00 | 95 | 1008.7 |
| 20260506122018 | 22 | 160 | 3.2 | 8.0 | 0.00 | 0.28 | 0.00 | 95 | 1008.8 |
| 20260506121018 | 22 | 161 | 3.2 | 8.0 | 0.00 | 0.28 | 0.00 | 95 | 1008.8 |
| 20260506120038 | 22 | 177 | 3.2 | 6.4 | 0.00 | 0.28 | 0.00 | 95 | 1008.8 |
| 20260506115038 | 22 | 189 | 4.8 | 6.4 | 0.00 | 0.28 | 0.00 | 95 | 1008.8 |
| 20260506114019 | 22 | 170 | 1.6 | 6.4 | 0.00 | 0.28 | 0.00 | 95 | 1008.9 |
| 20260506113019 | 22 | 154 | 3.2 | 6.4 | 0.00 | 0.28 | 0.00 | 95 | 1008.8 |
| 20260506112016 | 22 | 174 | 1.6 | 6.4 | 0.00 | 0.28 | 0.00 | 96 | 1008.9 |
| 20260506111016 | 22 | 146 | 4.8 | 9.7 | 0.00 | 0.28 | 0.00 | 96 | 1008.9 |
| 20260506110015 | 22 | 154 | 4.8 | 8.0 | 0.00 | 0.28 | 0.00 | 96 | 1008.9 |
| 20260506105016 | 22 | 157 | 4.8 | 8.0 | 0.00 | 0.28 | 0.00 | 96 | 1009.0 |
| 20260506104017 | 22 | 152 | 4.8 | 9.7 | 0.00 | 0.28 | 0.00 | 96 | 1009.0 |
| 20260506103017 | 22 | 163 | 4.8 | 9.7 | 0.00 | 0.28 | 0.00 | 96 | 1009.0 |
| 20260506102017 | 22 | 170 | 8.0 | 14.5 | 0.00 | 0.28 | 0.00 | 96 | 1009.0 |
| 20260506101037 | 22 | 162 | 8.0 | 14.5 | 0.00 | 0.28 | 0.00 | 96 | 1008.9 |
| 20260506100017 | 22 | 166 | 8.0 | 17.7 | 0.00 | 0.28 | 0.00 | 95 | 1008.9 |
| 20260506095017 | 22 | 164 | 9.7 | 14.5 | 0.00 | 0.28 | 0.00 | 95 | 1008.9 |
| 20260506094017 | 22 | 164 | 9.7 | 16.1 | 0.00 | 0.28 | 0.00 | 94 | 1008.8 |
| 20260506093018 | 23 | 164 | 8.0 | 19.3 | 0.00 | 0.28 | 0.00 | 93 | 1008.8 |
| 20260506092018 | 23 | 172 | 12.9 | 20.9 | 0.00 | 0.28 | 0.00 | 93 | 1008.7 |
| 20260506091018 | 23 | 163 | 9.7 | 14.5 | 0.00 | 0.28 | 0.00 | 93 | 1008.7 |
| 20260506090018 | 23 | 165 | 9.7 | 17.7 | 0.00 | 0.28 | 0.00 | 92 | 1008.5 |
| 20260506085018 | 23 | 162 | 9.7 | 17.7 | 0.00 | 0.28 | 0.00 | 92 | 1008.5 |
| 20260506084019 | 23 | 168 | 11.3 | 20.9 | 0.00 | 0.28 | 0.00 | 92 | 1008.4 |
| 20260506083056 | 23 | 170 | 12.9 | 25.7 | 0.00 | 0.28 | 0.00 | 93 | 1008.4 |
| 20260506082016 | 23 | 155 | 12.9 | 25.7 | 0.00 | 0.28 | 0.00 | 93 | 1008.4 |
| 20260506081016 | 23 | 161 | 11.3 | 19.3 | 0.00 | 0.28 | 0.00 | 93 | 1008.6 |
| 20260506073017 | 23 | 163 | 11.3 | 19.3 | 0.00 | 0.28 | 0.00 | 91 | 1009.0 |
| 20260506072017 | 23 | 165 | 6.4 | 14.5 | 0.00 | 0.28 | 0.00 | 90 | 1009.1 |
| 20260506071037 | 23 | 156 | 8.0 | 14.5 | 0.00 | 0.28 | 0.00 | 90 | 1009.2 |
| 20260506062038 | 23 | 161 | 12.9 | 19.3 | 0.00 | 0.28 | 0.00 | 89 | 1009.2 |
| 20260506061018 | 24 | 165 | 14.5 | 20.9 | 0.00 | 0.28 | 0.00 | 88 | 1009.1 |
| 20260506051016 | 24 | 157 | 12.9 | 17.7 | 0.00 | 0.28 | 0.00 | 87 | 1008.9 |
| 20260506050331 | 24 | 164 | 12.9 | 20.9 | 0.00 | 0.28 | 0.00 | 87 | 1008.9 |
| 20260506045016 | 24 | 163 | 11.3 | 20.9 | 0.00 | 0.28 | 0.28 | 88 | 1009.0 |
| 20260506044017 | 24 | 162 | 8.0 | 17.7 | 0.00 | 0.28 | 0.28 | 89 | 1008.9 |
| 20260506043037 | 23 | 176 | 3.2 | 6.4 | 0.00 | 0.28 | 0.28 | 89 | 1008.8 |
| 20260506042017 | 23 | 143 | 1.6 | 4.8 | 0.00 | 0.28 | 0.28 | 88 | 1008.7 |
| 20260506041017 | 23 | 145 | 4.8 | 9.7 | 0.00 | 0.28 | 0.28 | 87 | 1008.7 |
| 20260506040017 | 23 | 152 | 4.8 | 9.7 | 0.00 | 0.28 | 0.28 | 86 | 1008.6 |
| 20260506035018 | 23 | 93 | 1.6 | 4.8 | 0.00 | 0.28 | 0.28 | 86 | 1008.5 |
| 20260506034017 | 23 | 45 | 0.0 | 3.2 | 0.00 | 0.28 | 0.28 | 86 | 1008.3 |
| 20260506033018 | 23 | 31 | 1.6 | 3.2 | 0.00 | 0.28 | 0.28 | 85 | 1008.2 |
| 20260506032018 | 24 | 54 | 0.0 | 1.6 | 0.00 | 0.28 | 0.28 | 84 | 1008.1 |
| 20260506031018 | 24 | 9 | 1.6 | 3.2 | 0.00 | 0.28 | 0.28 | 83 | 1008.0 |
| 20260506030018 | 24 | 342 | 0.0 | 1.6 | 0.00 | 0.28 | 0.28 | 83 | 1007.7 |
| 20260506025018 | 24 | 15 | 0.0 | 1.6 | 0.00 | 0.28 | 0.28 | 83 | 1007.7 |
| 20260506024018 | 25 | 333 | 0.0 | 3.2 | 0.00 | 0.28 | 0.28 | 82 | 1007.5 |
| 20260506023016 | 25 | 10 | 1.6 | 4.8 | 0.00 | 0.28 | 0.28 | 82 | 1007.4 |
| 20260506022017 | 25 | 8 | 0.0 | 3.2 | 0.00 | 0.28 | 0.28 | 81 | 1007.2 |
| 20260506021017 | 25 | 185 | 1.6 | 4.8 | 0.00 | 0.28 | 0.28 | 79 | 1007.1 |
| 20260506020016 | 26 | 53 | 0.0 | 1.6 | 0.00 | 0.28 | 0.28 | 78 | 1006.9 |
| 20260506015016 | 26 | 199 | 3.2 | 4.8 | 0.00 | 0.28 | 0.28 | 77 | 1006.9 |
| 20260506014017 | 26 | 205 | 3.2 | 4.8 | 0.00 | 0.28 | 0.28 | 76 | 1006.6 |
| 20260506013039 | 27 | 145 | 1.6 | 6.4 | 0.00 | 0.28 | 0.28 | 74 | 1006.5 |
| 20260506012018 | 27 | 158 | 6.4 | 11.3 | 0.00 | 0.28 | 0.28 | 73 | 1006.3 |
| 20260506011037 | 27 | 162 | 3.2 | 6.4 | 0.03 | 0.28 | 0.28 | 72 | 1006.3 |
| 20260506010017 | 27 | 146 | 1.6 | 4.8 | 0.28 | 0.28 | 0.28 | 70 | 1006.2 |
| 20260506005018 | 28 | 166 | 4.8 | 8.0 | 0.28 | 0.28 | 0.28 | 69 | 1006.2 |
| 20260506004038 | 28 | 163 | 3.2 | 4.8 | 0.28 | 0.28 | 0.28 | 68 | 1006.4 |
| 20260506003018 | 28 | 165 | 3.2 | 4.8 | 0.28 | 0.28 | 0.28 | 67 | 1006.5 |
| 20260506002018 | 28 | 122 | 3.2 | 8.0 | 0.28 | 0.28 | 0.28 | 67 | 1006.5 |
| 20260506001018 | 28 | 145 | 4.8 | 11.3 | 0.25 | 0.25 | 0.25 | 67 | 1006.5 |
| 20260506000036 | 28 | 158 | 8.0 | 12.9 | 0.00 | 0.00 | 0.00 | 66 | 1006.4 |
| 20260505235016 | 28 | 178 | 8.0 | 14.5 | 0.00 | 0.00 | 0.00 | 64 | 1006.4 |
| 20260505234016 | 28 | 173 | 6.4 | 9.7 | 0.00 | 0.00 | 0.00 | 65 | 1006.3 |
| 20260505233016 | 29 | 206 | 9.7 | 14.5 | 0.00 | 0.03 | 0.00 | 65 | 1006.3 |
| 20260505232036 | 29 | 182 | 8.0 | 12.9 | 0.00 | 0.03 | 0.00 | 64 | 1006.3 |
| 20260505231017 | 29 | 153 | 8.0 | 14.5 | 0.00 | 0.03 | 0.00 | 65 | 1006.4 |
| 20260505230017 | 29 | 173 | 8.0 | 12.9 | 0.00 | 0.03 | 0.00 | 64 | 1006.3 |
| 20260505225017 | 29 | 197 | 6.4 | 14.5 | 0.00 | 0.03 | 0.00 | 64 | 1006.3 |
| 20260505224017 | 28 | 165 | 9.7 | 17.7 | 0.00 | 0.03 | 0.00 | 65 | 1006.3 |
| 20260505223017 | 28 | 171 | 11.3 | 19.3 | 0.00 | 0.03 | 0.00 | 65 | 1006.3 |
| 20260505222017 | 28 | 173 | 11.3 | 19.3 | 0.00 | 0.03 | 0.00 | 65 | 1006.2 |
| 20260505221018 | 29 | 178 | 12.9 | 20.9 | 0.00 | 0.03 | 0.00 | 64 | 1006.3 |
| 20260505220018 | 28 | 177 | 11.3 | 17.7 | 0.00 | 0.03 | 0.00 | 65 | 1006.3 |
| 20260505215018 | 29 | 163 | 9.7 | 19.3 | 0.00 | 0.03 | 0.00 | 65 | 1006.4 |
| 20260505214018 | 29 | 180 | 12.9 | 20.9 | 0.00 | 0.03 | 0.00 | 64 | 1006.5 |
| 20260505213019 | 28 | 181 | 12.9 | 25.7 | 0.00 | 0.03 | 0.00 | 65 | 1006.5 |
| 20260505212016 | 28 | 152 | 9.7 | 19.3 | 0.00 | 0.03 | 0.00 | 65 | 1006.5 |
| 20260505211016 | 29 | 182 | 12.9 | 19.3 | 0.00 | 0.03 | 0.00 | 64 | 1006.7 |
| 20260505210016 | 29 | 184 | 6.4 | 12.9 | 0.00 | 0.03 | 0.00 | 63 | 1007.0 |
| 20260505205016 | 28 | 215 | 11.3 | 20.9 | 0.00 | 0.03 | 0.00 | 63 | 1007.0 |
| 20260505204016 | 28 | 204 | 12.9 | 20.9 | 0.00 | 0.03 | 0.00 | 64 | 1007.3 |
| 20260505203016 | 28 | 223 | 12.9 | 20.9 | 0.00 | 0.03 | 0.00 | 64 | 1007.4 |
| 20260505202016 | 28 | 187 | 9.7 | 22.5 | 0.00 | 0.03 | 0.00 | 65 | 1007.6 |
| 20260505201017 | 28 | 216 | 11.3 | 16.1 | 0.00 | 0.03 | 0.00 | 66 | 1007.7 |
| 20260505200017 | 28 | 196 | 12.9 | 19.3 | 0.00 | 0.03 | 0.00 | 65 | 1007.8 |
| 20260505195017 | 28 | 184 | 12.9 | 19.3 | 0.00 | 0.03 | 0.00 | 65 | 1007.9 |
| 20260505194017 | 27 | 168 | 12.9 | 20.9 | 0.00 | 0.03 | 0.00 | 68 | 1008.0 |
| 20260505193018 | 27 | 201 | 8.0 | 16.1 | 0.00 | 0.03 | 0.00 | 67 | 1008.2 |
| 20260505192018 | 27 | 202 | 9.7 | 20.9 | 0.00 | 0.03 | 0.00 | 68 | 1008.2 |
| 20260505191018 | 27 | 191 | 8.0 | 16.1 | 0.00 | 0.03 | 0.00 | 68 | 1008.3 |
| 20260505190018 | 26 | 252 | 6.4 | 16.1 | 0.00 | 0.03 | 0.00 | 70 | 1008.5 |
| 20260505185018 | 26 | 222 | 9.7 | 17.7 | 0.00 | 0.03 | 0.00 | 72 | 1008.7 |
| 20260505184018 | 26 | 236 | 8.0 | 14.5 | 0.00 | 0.03 | 0.00 | 72 | 1008.8 |
| 20260505183036 | 26 | 250 | 8.0 | 14.5 | 0.00 | 0.03 | 0.00 | 72 | 1009.0 |
| 20260505182016 | 26 | 213 | 6.4 | 12.9 | 0.00 | 0.03 | 0.00 | 74 | 1009.0 |
| 20260505181016 | 25 | 198 | 9.7 | 17.7 | 0.00 | 0.03 | 0.00 | 74 | 1009.2 |
| 20260505180016 | 25 | 202 | 11.3 | 16.1 | 0.00 | 0.03 | 0.00 | 77 | 1009.4 |
| 20260505175016 | 25 | 201 | 8.0 | 12.9 | 0.00 | 0.03 | 0.00 | 78 | 1009.6 |
| 20260505174016 | 24 | 234 | 8.0 | 12.9 | 0.00 | 0.03 | 0.00 | 80 | 1009.5 |
| 20260505173017 | 23 | 239 | 8.0 | 17.7 | 0.00 | 0.03 | 0.00 | 81 | 1009.6 |
| 20260505172017 | 23 | 225 | 11.3 | 17.7 | 0.00 | 0.03 | 0.00 | 83 | 1009.5 |
| 20260505171017 | 23 | 199 | 9.7 | 16.1 | 0.00 | 0.03 | 0.00 | 84 | 1009.6 |
| 20260505170018 | 23 | 199 | 11.3 | 16.1 | 0.00 | 0.03 | 0.00 | 84 | 1009.6 |
| 20260505165018 | 23 | 213 | 12.9 | 17.7 | 0.00 | 0.03 | 0.00 | 85 | 1009.6 |
| 20260505164017 | 22 | 188 | 9.7 | 17.7 | 0.00 | 0.03 | 0.00 | 87 | 1009.6 |
| 20260505163021 | 22 | 223 | 4.8 | 9.7 | 0.00 | 0.03 | 0.00 | 89 | 1009.6 |
| 20260505162041 | 22 | 198 | 8.0 | 14.5 | 0.00 | 0.03 | 0.00 | 92 | 1009.6 |
| 20260505161041 | 21 | 201 | 6.4 | 11.3 | 0.00 | 0.03 | 0.00 | 93 | 1009.5 |
| 20260505153016 | 21 | 213 | 8.0 | 11.3 | 0.00 | 0.03 | 0.00 | 97 | 1009.6 |
| 20260505152016 | 20 | 213 | 8.0 | 12.9 | 0.00 | 0.03 | 0.00 | 98 | 1009.7 |
| 20260505151036 | 20 | 203 | 8.0 | 12.9 | 0.00 | 0.03 | 0.00 | 98 | 1009.6 |